Regional Weather Roundup
Issued by NWS

Home | Current Version | Previous Version | Graphics & Text | Print | Product List | Glossary On
Versions: 1 2 3 4 5 6 7 8 9 10 11 12 13 14 15 16 17 18 19 20 21 22 23 24 25 26 27 28 29 30 31 32 33 34 35 36 37 38 39 40 41 42 43 44 45 46 47 48 49 50
186
ASUS43 KBIS 220910
RWRND

NORTH DAKOTA REGIONAL WEATHER ROUNDUP
NATIONAL WEATHER SERVICE BISMARCK ND
400 AM CDT TUE AUG 22 2017

NOTE: "FAIR" INDICATES FEW OR NO CLOUDS BELOW 12,000 FEET WITH NO
SIGNIFICANT WEATHER AND/OR OBSTRUCTIONS TO VISIBILITY.


NDZ001>003-009>011-017-221000-
NORTHWEST NORTH DAKOTA

CITY           SKY/WX    TMP DP  RH WIND       PRES   REMARKS
WILLISTON      CLEAR     45  37  73 CALM      30.18R
MINOT          CLEAR     50  41  71 SW9       30.12R
MINOT AFB      CLEAR     45  39  78 W7        30.10S
$$

NDZ018>021-031>035-040>046-221000-
SOUTHWEST NORTH DAKOTA

CITY           SKY/WX    TMP DP  RH WIND       PRES   REMARKS
BISMARCK       CLEAR     50  45  83 SW5       30.14S
DICKINSON      CLEAR     44  37  76 VRB3      30.18S
GARRISON         N/A     46  41  82 NW9       30.14R
HETTINGER ARPT PTCLDY    40  37  89 W5        30.21S
$$

NDZ004>008-012>016-024-026-027-054-221000-
NORTHEAST NORTH DAKOTA

CITY           SKY/WX    TMP DP  RH WIND       PRES   REMARKS
GRAND FORKS    CLEAR     50  47  89 W8        29.99S
GRND FRKS AFB  PTCLDY    52  45  78 NW8       30.00S
DEVILS LAKE    CLEAR     53  45  74 NW9       30.07R
$$

NDZ022-023-025-028>030-036>039-047>053-221000-
SOUTHEAST NORTH DAKOTA

CITY           SKY/WX    TMP DP  RH WIND       PRES   REMARKS
FARGO          CLEAR     51  48  89 W3        30.02S
JAMESTOWN      CLEAR     50  45  83 W8        30.08R
$$





USA.gov is the U.S. government's official web portal to all federal, state and local government web resources and services.